Change the Weather History Date:

Wednesday, July 25, 2012

  Actual Average (K3TH) Record (K3TH)
Temperature  
Mean Temperature 58 °F -  
Max Temperature 70 °F 86 °F 100 °F (1998)
Min Temperature 48 °F 57 °F 55 °F (1997)
Degree Days  
Heating Degree Days 7    
Growing Degree Days 8 (Base 50)    
Moisture  
Dew Point 45 °F    
Average Humidity 61    
Maximum Humidity 80    
Minimum Humidity 43    
Precipitation  
Precipitation 0.00 in - - ()
Sea Level Pressure  
Sea Level Pressure 29.91 in    
Wind  
Wind Speed 3 mph (NW)    
Max Wind Speed 6 mph    
Max Gust Speed -    
Visibility 10 miles    
Events      
Averages and records for this station are not official NWS values.
T = Trace of Precipitation, MM = Missing Value Source: NWS Daily Summary

Daily Weather History Graph

Daily Weather History Graph

Search for Another Location

Airport or City:

Trip Planner

Search our weather history database for the weather conditions in past years. The results will help you decide how hot, cold, wet, or windy it might be!

Date:

Astronomy

Jul. 25, 2012 Rise Set
Actual Time 5:12 AM PDT 8:24 PM PDT
Civil Twilight 4:35 AM PDT 9:01 PM PDT
Nautical Twilight 3:47 AM PDT 9:49 PM PDT
Astronomical Twilight 2:46 AM PDT 10:49 PM PDT
Moon 12:59 PM PDT (7/25) 11:14 PM PDT (7/25)
Length of Visible Light 16h 25m
Length of Day
15h 12m
Waxing Crescent, 43% of the Moon is Illuminated
Jul 25
Waxing Crescent
Jul 26
First Quarter
Aug 1
Full
Aug 9
Last Quarter
Aug 17
New

Hourly Weather History & Observations

Time (PDT) Temp. Dew Point Humidity Pressure Visibility Wind Dir Wind Speed Gust Speed Precip Events Conditions
12:53 AM 50.0 °F 43.0 °F 77% 29.90 in 10.0 mi NNW 3.5 mph - N/A   Clear
1:53 AM 52.0 °F 43.0 °F 71% 29.89 in 10.0 mi WNW 4.6 mph - N/A   Clear
2:53 AM 50.0 °F 43.0 °F 77% 29.89 in 10.0 mi NW 3.5 mph - N/A   Clear
3:53 AM 48.9 °F 43.0 °F 80% 29.89 in 10.0 mi NW 4.6 mph - N/A   Clear
4:53 AM 51.1 °F 43.0 °F 74% 29.89 in 10.0 mi Calm Calm - N/A   Clear
5:53 AM 51.1 °F 44.1 °F 77% 29.90 in 10.0 mi Calm Calm - N/A   Clear
6:53 AM 54.0 °F 44.1 °F 69% 29.90 in 10.0 mi Calm Calm - N/A   Clear
7:53 AM 55.9 °F 45.0 °F 67% 29.92 in 10.0 mi Variable 4.6 mph - N/A   Clear
8:53 AM 57.9 °F 46.0 °F 65% 29.93 in 10.0 mi Variable 3.5 mph - N/A   Clear
9:53 AM 59.0 °F 45.0 °F 60% 29.94 in 10.0 mi Variable 3.5 mph - N/A   Clear
10:53 AM 61.0 °F 45.0 °F 56% 29.93 in 10.0 mi Variable 3.5 mph - N/A   Clear
11:53 AM 63.0 °F 45.0 °F 52% 29.93 in 10.0 mi NNW 5.8 mph - N/A   Clear
12:53 PM 66.0 °F 46.0 °F 48% 29.93 in 10.0 mi Variable 4.6 mph - N/A   Clear
1:53 PM 68.0 °F 48.9 °F 50% 29.92 in 10.0 mi Variable 4.6 mph - N/A   Clear
2:53 PM 66.0 °F 48.0 °F 52% 29.93 in 10.0 mi Variable 3.5 mph - N/A   Clear
3:53 PM 66.9 °F 46.0 °F 47% 29.92 in 10.0 mi Calm Calm - N/A   Partly Cloudy
4:53 PM 68.0 °F 45.0 °F 43% 29.90 in 10.0 mi Calm Calm - N/A   Mostly Cloudy
5:53 PM 66.9 °F 46.0 °F 47% 29.90 in 10.0 mi Calm Calm - N/A   Clear
6:53 PM 64.9 °F 48.0 °F 54% 29.89 in 10.0 mi Variable 3.5 mph - N/A   Clear
7:53 PM 62.1 °F 48.0 °F 60% 29.90 in 10.0 mi NNW 3.5 mph - N/A   Clear
8:53 PM 59.0 °F 45.0 °F 60% 29.90 in 10.0 mi NW 4.6 mph - N/A   Clear
9:53 PM 59.0 °F 45.0 °F 60% 29.90 in 10.0 mi NW 3.5 mph - N/A   Clear
10:53 PM 61.0 °F 45.0 °F 56% 29.89 in 10.0 mi Calm Calm - N/A   Clear
11:53 PM 60.1 °F 44.1 °F 55% 29.88 in 10.0 mi Calm Calm - N/A   Clear